Year,Month,Day,Hour,Minute,Value (Times are PST for temperature in C)
2016,05,30,00,00,12.30
2016,05,30,00,01,12.30
2016,05,30,00,02,12.30
2016,05,30,00,03,12.30
2016,05,30,00,04,12.20
2016,05,30,00,05,12.20
2016,05,30,00,06,12.20
2016,05,30,00,07,12.20
2016,05,30,00,08,12.10
2016,05,30,00,09,12.10
2016,05,30,00,10,12.00
2016,05,30,00,11,12.00
2016,05,30,00,12,12.00
2016,05,30,00,13,11.90
2016,05,30,00,14,11.90
2016,05,30,00,15,11.80
2016,05,30,00,16,11.80
2016,05,30,00,17,11.80
2016,05,30,00,18,11.70
2016,05,30,00,19,11.70
2016,05,30,00,20,11.70
2016,05,30,00,21,11.70
2016,05,30,00,22,11.70
2016,05,30,00,23,11.70
2016,05,30,00,24,11.60
2016,05,30,00,25,11.60
2016,05,30,00,26,11.60
2016,05,30,00,27,11.60
2016,05,30,00,28,11.60
2016,05,30,00,29,11.60
2016,05,30,00,30,11.60
2016,05,30,00,31,11.60
2016,05,30,00,32,11.50
2016,05,30,00,33,11.50
2016,05,30,00,34,11.50
2016,05,30,00,35,11.50
2016,05,30,00,36,11.50
2016,05,30,00,37,11.50
2016,05,30,00,38,11.50
2016,05,30,00,39,11.50
2016,05,30,00,40,11.50
2016,05,30,00,41,11.50
2016,05,30,00,42,11.50
2016,05,30,00,43,11.50
2016,05,30,00,44,11.50
2016,05,30,00,45,11.50
2016,05,30,00,46,11.50
2016,05,30,00,47,11.50
2016,05,30,00,48,11.50
2016,05,30,00,49,11.50
2016,05,30,00,50,11.50
2016,05,30,00,51,11.50
2016,05,30,00,52,11.50
2016,05,30,00,53,11.50
2016,05,30,00,54,11.40
2016,05,30,00,55,11.40
2016,05,30,00,56,11.40
2016,05,30,00,57,11.40
2016,05,30,00,58,11.40
2016,05,30,00,59,11.40
2016,05,30,01,00,11.40
2016,05,30,01,01,11.40
2016,05,30,01,02,11.30
2016,05,30,01,03,11.30
2016,05,30,01,04,11.20
2016,05,30,01,05,11.20
2016,05,30,01,06,11.10
2016,05,30,01,07,11.00
2016,05,30,01,08,10.90
2016,05,30,01,09,10.90
2016,05,30,01,10,10.90
2016,05,30,01,11,10.80
2016,05,30,01,12,10.80
2016,05,30,01,13,10.70
2016,05,30,01,14,10.70
2016,05,30,01,15,10.60
2016,05,30,01,16,10.60
2016,05,30,01,17,10.60
2016,05,30,01,18,10.50
2016,05,30,01,19,10.50
2016,05,30,01,20,10.40
2016,05,30,01,21,10.40
2016,05,30,01,22,10.30
2016,05,30,01,23,10.30
2016,05,30,01,24,10.30
2016,05,30,01,25,10.20
2016,05,30,01,26,10.20
2016,05,30,01,27,10.20
2016,05,30,01,28,10.10
2016,05,30,01,29,10.10
2016,05,30,01,30,10.10
2016,05,30,01,31,10.10
2016,05,30,01,32,10.10
2016,05,30,01,33,10.10
2016,05,30,01,34,10.10
2016,05,30,01,35,10.10
2016,05,30,01,36,10.10
2016,05,30,01,37,10.00
2016,05,30,01,38,10.00
2016,05,30,01,39,10.00
2016,05,30,01,40,10.00
2016,05,30,01,41,10.00
2016,05,30,01,42,10.00
2016,05,30,01,43,10.00
2016,05,30,01,44,10.00
2016,05,30,01,45,10.00
2016,05,30,01,46,10.00
2016,05,30,01,47,10.00
2016,05,30,01,48,10.10
2016,05,30,01,49,10.10
2016,05,30,01,50,10.10
2016,05,30,01,51,10.10
2016,05,30,01,52,10.10
2016,05,30,01,53,10.20
2016,05,30,01,54,10.20
2016,05,30,01,55,10.20
2016,05,30,01,56,10.20
2016,05,30,01,57,10.20
2016,05,30,01,58,10.30
2016,05,30,01,59,10.30
2016,05,30,02,00,10.30
2016,05,30,02,01,10.40
2016,05,30,02,02,10.40
2016,05,30,02,03,10.50
2016,05,30,02,04,10.50
2016,05,30,02,05,10.60
2016,05,30,02,06,10.60
2016,05,30,02,07,10.60
2016,05,30,02,08,10.70
2016,05,30,02,09,10.70
2016,05,30,02,10,10.70
2016,05,30,02,11,10.70
2016,05,30,02,12,10.70
2016,05,30,02,13,10.70
2016,05,30,02,14,10.70
2016,05,30,02,15,10.70
2016,05,30,02,16,10.70
2016,05,30,02,17,10.70
2016,05,30,02,18,10.70
2016,05,30,02,19,10.70
2016,05,30,02,20,10.70
2016,05,30,02,21,10.70
2016,05,30,02,22,10.60
2016,05,30,02,23,10.60
2016,05,30,02,24,10.50
2016,05,30,02,25,10.50
2016,05,30,02,26,10.40
2016,05,30,02,27,10.40
2016,05,30,02,28,10.30
2016,05,30,02,29,10.30
2016,05,30,02,30,10.20
2016,05,30,02,31,10.20
2016,05,30,02,32,10.20
2016,05,30,02,33,10.20
2016,05,30,02,34,10.10
2016,05,30,02,35,10.10
2016,05,30,02,36,10.10
2016,05,30,02,37,10.00
2016,05,30,02,38,10.00
2016,05,30,02,39,10.00
2016,05,30,02,40,9.90
2016,05,30,02,41,9.90
2016,05,30,02,42,9.90
2016,05,30,02,43,9.90
2016,05,30,02,44,9.80
2016,05,30,02,45,9.80
2016,05,30,02,46,9.80
2016,05,30,02,47,9.80
2016,05,30,02,48,9.80
2016,05,30,02,49,9.80
2016,05,30,02,50,9.80
2016,05,30,02,51,9.70
2016,05,30,02,52,9.70
2016,05,30,02,53,9.70
2016,05,30,02,54,9.70
2016,05,30,02,55,9.70
2016,05,30,02,56,9.70
2016,05,30,02,57,9.70
2016,05,30,02,58,9.60
2016,05,30,02,59,9.60
2016,05,30,03,00,9.60
2016,05,30,03,01,9.60
2016,05,30,03,02,9.60
2016,05,30,03,03,9.60
2016,05,30,03,04,9.60
2016,05,30,03,05,9.60
2016,05,30,03,06,9.50
2016,05,30,03,07,9.50
2016,05,30,03,08,9.50
2016,05,30,03,09,9.50
2016,05,30,03,10,9.50
2016,05,30,03,11,9.40
2016,05,30,03,12,9.40
2016,05,30,03,13,9.40
2016,05,30,03,14,9.40
2016,05,30,03,15,9.40
2016,05,30,03,16,9.40
2016,05,30,03,17,9.30
2016,05,30,03,18,9.30
2016,05,30,03,19,9.30
2016,05,30,03,20,9.30
2016,05,30,03,21,9.30
2016,05,30,03,22,9.30
2016,05,30,03,23,9.30
2016,05,30,03,24,9.30
2016,05,30,03,25,9.30
2016,05,30,03,26,9.30
2016,05,30,03,27,9.20
2016,05,30,03,28,9.20
2016,05,30,03,29,9.20
2016,05,30,03,30,9.20
2016,05,30,03,31,9.20
2016,05,30,03,32,9.20
2016,05,30,03,33,9.10
2016,05,30,03,34,9.10
2016,05,30,03,35,9.10
2016,05,30,03,36,9.10
2016,05,30,03,37,9.10
2016,05,30,03,38,9.10
2016,05,30,03,39,9.10
2016,05,30,03,40,9.10
2016,05,30,03,41,9.00
2016,05,30,03,42,9.00
2016,05,30,03,43,9.00
2016,05,30,03,44,9.00
2016,05,30,03,45,9.00
2016,05,30,03,46,9.00
2016,05,30,03,47,9.00
2016,05,30,03,48,9.00
2016,05,30,03,49,9.00
2016,05,30,03,50,9.00
2016,05,30,03,51,9.00
2016,05,30,03,52,9.00
2016,05,30,03,53,9.00
2016,05,30,03,54,9.00
2016,05,30,03,55,9.00
2016,05,30,03,56,9.00
2016,05,30,03,57,9.00
2016,05,30,03,58,8.90
2016,05,30,03,59,8.90
2016,05,30,04,00,8.90
2016,05,30,04,01,8.80
2016,05,30,04,02,8.80
2016,05,30,04,03,8.80
2016,05,30,04,04,8.80
2016,05,30,04,05,8.80
2016,05,30,04,06,8.80
2016,05,30,04,07,8.80
2016,05,30,04,08,8.80
2016,05,30,04,09,8.70
2016,05,30,04,10,8.70
2016,05,30,04,11,8.70
2016,05,30,04,12,8.70
2016,05,30,04,13,8.70
2016,05,30,04,14,8.70
2016,05,30,04,15,8.70
2016,05,30,04,16,8.70
2016,05,30,04,17,8.70
2016,05,30,04,18,8.70
2016,05,30,04,19,8.70
2016,05,30,04,20,8.70
2016,05,30,04,21,8.70
2016,05,30,04,22,8.70
2016,05,30,04,23,8.70
2016,05,30,04,24,8.70
2016,05,30,04,25,8.70
2016,05,30,04,26,8.70
2016,05,30,04,27,8.70
2016,05,30,04,28,8.70
2016,05,30,04,29,8.70
2016,05,30,04,30,8.80
2016,05,30,04,31,8.80
2016,05,30,04,32,8.80
2016,05,30,04,33,8.80
2016,05,30,04,34,8.80
2016,05,30,04,35,8.80
2016,05,30,04,36,8.80
2016,05,30,04,37,8.80
2016,05,30,04,38,8.80
2016,05,30,04,39,8.80
2016,05,30,04,40,8.80
2016,05,30,04,41,8.80
2016,05,30,04,42,8.80
2016,05,30,04,43,8.90
2016,05,30,04,44,8.90
2016,05,30,04,45,8.90
2016,05,30,04,46,8.90
2016,05,30,04,47,8.90
2016,05,30,04,48,8.90
2016,05,30,04,49,8.90
2016,05,30,04,50,8.90
2016,05,30,04,51,8.90
2016,05,30,04,52,9.00
2016,05,30,04,53,9.00
2016,05,30,04,54,8.90
2016,05,30,04,55,8.90
2016,05,30,04,56,8.90
2016,05,30,04,57,8.90
2016,05,30,04,58,8.90
2016,05,30,04,59,8.90
2016,05,30,05,00,8.90
2016,05,30,05,01,8.90
2016,05,30,05,02,8.90
2016,05,30,05,03,8.90
2016,05,30,05,04,8.90
2016,05,30,05,05,8.90
2016,05,30,05,06,8.90
2016,05,30,05,07,8.90
2016,05,30,05,08,8.90
2016,05,30,05,09,8.90
2016,05,30,05,10,8.90
2016,05,30,05,11,8.90
2016,05,30,05,12,8.90
2016,05,30,05,13,8.90
2016,05,30,05,14,8.90
2016,05,30,05,15,8.90
2016,05,30,05,16,9.00
2016,05,30,05,17,9.00
2016,05,30,05,18,9.00
2016,05,30,05,19,9.00
2016,05,30,05,20,9.00
2016,05,30,05,21,9.10
2016,05,30,05,22,9.10
2016,05,30,05,23,9.10
2016,05,30,05,24,9.20
2016,05,30,05,25,9.20
2016,05,30,05,26,9.10
2016,05,30,05,27,9.10
2016,05,30,05,28,9.20
2016,05,30,05,29,9.20
2016,05,30,05,30,9.20
2016,05,30,05,31,9.20
2016,05,30,05,32,9.20
2016,05,30,05,33,9.20
2016,05,30,05,34,9.20
2016,05,30,05,35,9.20
2016,05,30,05,36,9.20
2016,05,30,05,37,9.30
2016,05,30,05,38,9.30
2016,05,30,05,39,9.30
2016,05,30,05,40,9.30
2016,05,30,05,41,9.30
2016,05,30,05,42,9.30
2016,05,30,05,43,9.40
2016,05,30,05,44,9.40
2016,05,30,05,45,9.40
2016,05,30,05,46,9.40
2016,05,30,05,47,9.40
2016,05,30,05,48,9.40
2016,05,30,05,49,9.40
2016,05,30,05,50,9.40
2016,05,30,05,51,9.40
2016,05,30,05,52,9.40
2016,05,30,05,53,9.40
2016,05,30,05,54,9.40
2016,05,30,05,55,9.40
2016,05,30,05,56,9.50
2016,05,30,05,57,9.40
2016,05,30,05,58,9.40
2016,05,30,05,59,9.50
2016,05,30,06,00,9.50
2016,05,30,06,01,9.50
2016,05,30,06,02,9.50
2016,05,30,06,03,9.50
2016,05,30,06,04,9.50
2016,05,30,06,05,9.50
2016,05,30,06,06,9.50
2016,05,30,06,07,9.50
2016,05,30,06,08,9.40
2016,05,30,06,09,9.40
2016,05,30,06,10,9.40
2016,05,30,06,11,9.40
2016,05,30,06,12,9.40
2016,05,30,06,13,9.40
2016,05,30,06,14,9.40
2016,05,30,06,15,9.40
2016,05,30,06,16,9.50
2016,05,30,06,17,9.50
2016,05,30,06,18,9.60
2016,05,30,06,19,9.60
2016,05,30,06,20,9.70
2016,05,30,06,21,9.70
2016,05,30,06,22,9.70
2016,05,30,06,23,9.80
2016,05,30,06,24,9.80
2016,05,30,06,25,9.80
2016,05,30,06,26,9.90
2016,05,30,06,27,9.90
2016,05,30,06,28,9.90
2016,05,30,06,29,9.90
2016,05,30,06,30,9.90
2016,05,30,06,31,9.90
2016,05,30,06,32,9.90
2016,05,30,06,33,9.90
2016,05,30,06,34,9.90
2016,05,30,06,35,9.90
2016,05,30,06,36,9.90
2016,05,30,06,37,9.90
2016,05,30,06,38,9.90
2016,05,30,06,39,9.90
2016,05,30,06,40,9.90
2016,05,30,06,41,9.80
2016,05,30,06,42,9.80
2016,05,30,06,43,9.80
2016,05,30,06,44,9.80
2016,05,30,06,45,9.80
2016,05,30,06,46,9.80
2016,05,30,06,47,9.70
2016,05,30,06,48,9.70
2016,05,30,06,49,9.70
2016,05,30,06,50,9.70
2016,05,30,06,51,9.60
2016,05,30,06,52,9.60
2016,05,30,06,53,9.60
2016,05,30,06,54,9.60
2016,05,30,06,55,9.60
2016,05,30,06,56,9.70
2016,05,30,06,57,9.70
2016,05,30,06,58,9.70
2016,05,30,06,59,9.70
2016,05,30,07,00,9.70
2016,05,30,07,01,9.80
2016,05,30,07,02,9.90
2016,05,30,07,03,10.00
2016,05,30,07,04,10.10
2016,05,30,07,05,10.20
2016,05,30,07,06,10.30
2016,05,30,07,07,10.40
2016,05,30,07,08,10.50
2016,05,30,07,09,10.60
2016,05,30,07,10,10.70
2016,05,30,07,11,10.80
2016,05,30,07,12,10.90
2016,05,30,07,13,11.00
2016,05,30,07,14,11.10
2016,05,30,07,15,11.20
2016,05,30,07,16,11.30
2016,05,30,07,17,11.40
2016,05,30,07,18,11.50
2016,05,30,07,19,11.60
2016,05,30,07,20,11.70
2016,05,30,07,21,11.70
2016,05,30,07,22,11.80
2016,05,30,07,23,11.90
2016,05,30,07,24,11.90
2016,05,30,07,25,12.00
2016,05,30,07,26,12.00
2016,05,30,07,27,12.10
2016,05,30,07,28,12.10
2016,05,30,07,29,12.20
2016,05,30,07,30,12.20
2016,05,30,07,31,12.20
2016,05,30,07,32,12.30
2016,05,30,07,33,12.30
2016,05,30,07,34,12.40
2016,05,30,07,35,12.50
2016,05,30,07,36,12.50
2016,05,30,07,37,12.60
2016,05,30,07,38,12.60
2016,05,30,07,39,12.70
2016,05,30,07,40,12.70
2016,05,30,07,41,12.70
2016,05,30,07,42,12.70
2016,05,30,07,43,12.80
2016,05,30,07,44,12.80
2016,05,30,07,45,12.80
2016,05,30,07,46,12.90
2016,05,30,07,47,13.00
2016,05,30,07,48,13.00
2016,05,30,07,49,13.10
2016,05,30,07,50,13.10
2016,05,30,07,51,13.10
2016,05,30,07,52,13.10
2016,05,30,07,53,13.10
2016,05,30,07,54,13.10
2016,05,30,07,55,13.20
2016,05,30,07,56,13.20
2016,05,30,07,57,13.30
2016,05,30,07,58,13.30
2016,05,30,07,59,13.40
2016,05,30,08,00,13.40
2016,05,30,08,01,13.40
2016,05,30,08,02,13.40
2016,05,30,08,03,13.50
2016,05,30,08,04,13.50
2016,05,30,08,05,13.60
2016,05,30,08,06,13.60
2016,05,30,08,07,13.70
2016,05,30,08,08,13.70
2016,05,30,08,09,13.80
2016,05,30,08,10,13.90
2016,05,30,08,11,13.90
2016,05,30,08,12,14.00
2016,05,30,08,13,14.00
2016,05,30,08,14,14.00
2016,05,30,08,15,13.90
2016,05,30,08,16,13.80
2016,05,30,08,17,13.70
2016,05,30,08,18,13.60
2016,05,30,08,19,13.50
2016,05,30,08,20,13.60
2016,05,30,08,21,13.60
2016,05,30,08,22,13.60
2016,05,30,08,23,13.70
2016,05,30,08,24,13.80
2016,05,30,08,25,13.80
2016,05,30,08,26,13.80
2016,05,30,08,27,13.70
2016,05,30,08,28,13.60
2016,05,30,08,29,13.50
2016,05,30,08,30,13.50
2016,05,30,08,31,13.50
2016,05,30,08,32,13.50
2016,05,30,08,33,13.60
2016,05,30,08,34,13.70
2016,05,30,08,35,13.80
2016,05,30,08,36,13.90
2016,05,30,08,37,13.90
2016,05,30,08,38,14.00
2016,05,30,08,39,14.00
2016,05,30,08,40,14.10
2016,05,30,08,41,14.20
2016,05,30,08,42,14.30
2016,05,30,08,43,14.30
2016,05,30,08,44,14.30
2016,05,30,08,45,14.30
2016,05,30,08,46,14.20
2016,05,30,08,47,14.20
2016,05,30,08,48,14.20
2016,05,30,08,49,14.10
2016,05,30,08,50,14.10
2016,05,30,08,51,14.00
2016,05,30,08,52,14.10
2016,05,30,08,53,14.10
2016,05,30,08,54,14.20
2016,05,30,08,55,14.30
2016,05,30,08,56,14.40
2016,05,30,08,57,14.50
2016,05,30,08,58,14.70
2016,05,30,08,59,14.80
2016,05,30,09,00,14.90
2016,05,30,09,01,14.90
2016,05,30,09,02,15.00
2016,05,30,09,03,15.00
2016,05,30,09,04,15.00
2016,05,30,09,05,14.90
2016,05,30,09,06,14.90
2016,05,30,09,07,14.80
2016,05,30,09,08,14.70
2016,05,30,09,09,14.70
2016,05,30,09,10,14.60
2016,05,30,09,11,14.50
2016,05,30,09,12,14.40
2016,05,30,09,13,14.40
2016,05,30,09,14,14.40
2016,05,30,09,15,14.30
2016,05,30,09,16,14.30
2016,05,30,09,17,14.30
2016,05,30,09,18,14.20
2016,05,30,09,19,14.20
2016,05,30,09,20,14.20
2016,05,30,09,21,14.20
2016,05,30,09,22,14.20
2016,05,30,09,23,14.30
2016,05,30,09,24,14.30
2016,05,30,09,25,14.30
2016,05,30,09,26,14.30
2016,05,30,09,27,14.30
2016,05,30,09,28,14.40
2016,05,30,09,29,14.50
2016,05,30,09,30,14.50
2016,05,30,09,31,14.50
2016,05,30,09,32,14.50
2016,05,30,09,33,14.60
2016,05,30,09,34,14.60
2016,05,30,09,35,14.60
2016,05,30,09,36,14.60
2016,05,30,09,37,14.50
2016,05,30,09,38,14.50
2016,05,30,09,39,14.40
2016,05,30,09,40,14.40
2016,05,30,09,41,14.40
2016,05,30,09,42,14.40
2016,05,30,09,43,14.40
2016,05,30,09,44,14.40
2016,05,30,09,45,14.40
2016,05,30,09,46,14.30
2016,05,30,09,47,14.30
2016,05,30,09,48,14.40
2016,05,30,09,49,14.40
2016,05,30,09,50,14.50
2016,05,30,09,51,14.50
2016,05,30,09,52,14.60
2016,05,30,09,53,14.70
2016,05,30,09,54,14.80
2016,05,30,09,55,14.90
2016,05,30,09,56,15.00
2016,05,30,09,57,15.00
2016,05,30,09,58,15.00
2016,05,30,09,59,15.00
2016,05,30,10,00,14.90
2016,05,30,10,01,14.90
2016,05,30,10,02,14.90
2016,05,30,10,03,14.90
2016,05,30,10,04,14.90
2016,05,30,10,05,15.00
2016,05,30,10,06,14.90
2016,05,30,10,07,14.90
2016,05,30,10,08,14.90
2016,05,30,10,09,14.90
2016,05,30,10,10,14.90
2016,05,30,10,11,14.80
2016,05,30,10,12,14.70
2016,05,30,10,13,14.70
2016,05,30,10,14,14.70
2016,05,30,10,15,14.70
2016,05,30,10,16,14.70
2016,05,30,10,17,14.80
2016,05,30,10,18,14.80
2016,05,30,10,19,14.90
2016,05,30,10,20,15.00
2016,05,30,10,21,15.10
2016,05,30,10,22,15.20
2016,05,30,10,23,15.20
2016,05,30,10,24,15.20
2016,05,30,10,25,15.20
2016,05,30,10,26,15.20
2016,05,30,10,27,15.10
2016,05,30,10,28,15.10
2016,05,30,10,29,15.00
2016,05,30,10,30,15.00
2016,05,30,10,31,15.00
2016,05,30,10,32,14.90
2016,05,30,10,33,14.90
2016,05,30,10,34,14.90
2016,05,30,10,35,14.90
2016,05,30,10,36,14.90
2016,05,30,10,37,15.00
2016,05,30,10,38,15.00
2016,05,30,10,39,15.10
2016,05,30,10,40,15.20
2016,05,30,10,41,15.30
2016,05,30,10,42,15.30
2016,05,30,10,43,15.30
2016,05,30,10,44,15.40
2016,05,30,10,45,15.40
2016,05,30,10,46,15.40
2016,05,30,10,47,15.50
2016,05,30,10,48,15.50
2016,05,30,10,49,15.60
2016,05,30,10,50,15.60
2016,05,30,10,51,15.70
2016,05,30,10,52,15.70
2016,05,30,10,53,15.70
2016,05,30,10,54,15.70
2016,05,30,10,55,15.70
2016,05,30,10,56,15.70
2016,05,30,10,57,15.60
2016,05,30,10,58,15.60
2016,05,30,10,59,15.60
2016,05,30,11,00,15.70
2016,05,30,11,01,15.60
2016,05,30,11,02,15.60
2016,05,30,11,03,15.60
2016,05,30,11,04,15.60
2016,05,30,11,05,15.60
2016,05,30,11,06,15.60
2016,05,30,11,07,15.60
2016,05,30,11,08,15.60
2016,05,30,11,09,15.70
2016,05,30,11,10,15.70
2016,05,30,11,11,15.70
2016,05,30,11,12,15.70
2016,05,30,11,13,15.80
2016,05,30,11,14,15.80
2016,05,30,11,15,15.80
2016,05,30,11,16,15.90
2016,05,30,11,17,15.90
2016,05,30,11,18,16.00
2016,05,30,11,19,16.10
2016,05,30,11,20,16.20
2016,05,30,11,21,16.30
2016,05,30,11,22,16.30
2016,05,30,11,23,16.40
2016,05,30,11,24,16.40
2016,05,30,11,25,16.40
2016,05,30,11,26,16.40
2016,05,30,11,27,16.40
2016,05,30,11,28,16.40
2016,05,30,11,29,16.30
2016,05,30,11,30,16.30
2016,05,30,11,31,16.40
2016,05,30,11,32,16.40
2016,05,30,11,33,16.50
2016,05,30,11,34,16.60
2016,05,30,11,35,16.60
2016,05,30,11,36,16.70
2016,05,30,11,37,16.70
2016,05,30,11,38,16.60
2016,05,30,11,39,16.50
2016,05,30,11,40,16.40
2016,05,30,11,41,16.30
2016,05,30,11,42,16.20
2016,05,30,11,43,16.20
2016,05,30,11,44,16.20
2016,05,30,11,45,16.20
2016,05,30,11,46,16.30
2016,05,30,11,47,16.30
2016,05,30,11,48,16.30
2016,05,30,11,49,16.20
2016,05,30,11,50,16.20
2016,05,30,11,51,16.20
2016,05,30,11,52,16.20
2016,05,30,11,53,16.20
2016,05,30,11,54,16.30
2016,05,30,11,55,16.30
2016,05,30,11,56,16.30
2016,05,30,11,57,16.30
2016,05,30,11,58,16.20
2016,05,30,11,59,16.20
2016,05,30,12,00,16.20
2016,05,30,12,01,16.20
2016,05,30,12,02,16.30
2016,05,30,12,03,16.30
2016,05,30,12,04,16.30
2016,05,30,12,05,16.30
2016,05,30,12,06,16.30
2016,05,30,12,07,16.30
2016,05,30,12,08,16.40
2016,05,30,12,09,16.40
2016,05,30,12,10,16.50
2016,05,30,12,11,16.60
2016,05,30,12,12,16.60
2016,05,30,12,13,16.60
2016,05,30,12,14,16.50
2016,05,30,12,15,16.50
2016,05,30,12,16,16.50
2016,05,30,12,17,16.50
2016,05,30,12,18,16.50
2016,05,30,12,19,16.60
2016,05,30,12,20,16.60
2016,05,30,12,21,16.60
2016,05,30,12,22,16.60
2016,05,30,12,23,16.70
2016,05,30,12,24,16.80
2016,05,30,12,25,16.80
2016,05,30,12,26,16.90
2016,05,30,12,27,16.90
2016,05,30,12,28,16.90
2016,05,30,12,29,16.90
2016,05,30,12,30,16.90
2016,05,30,12,31,16.80
2016,05,30,12,32,16.80
2016,05,30,12,33,16.70
2016,05,30,12,34,16.70
2016,05,30,12,35,16.70
2016,05,30,12,36,16.80
2016,05,30,12,37,16.80
2016,05,30,12,38,16.90
2016,05,30,12,39,17.00
2016,05,30,12,40,17.10
2016,05,30,12,41,17.10
2016,05,30,12,42,17.10
2016,05,30,12,43,17.10
2016,05,30,12,44,17.00
2016,05,30,12,45,17.00
2016,05,30,12,46,17.00
2016,05,30,12,47,16.90
2016,05,30,12,48,16.90
2016,05,30,12,49,17.00
2016,05,30,12,50,17.10
2016,05,30,12,51,17.20
2016,05,30,12,52,17.30
2016,05,30,12,53,17.40
2016,05,30,12,54,17.50
2016,05,30,12,55,17.40
2016,05,30,12,56,17.40
2016,05,30,12,57,17.40
2016,05,30,12,58,17.30
2016,05,30,12,59,17.30
2016,05,30,13,00,17.30
2016,05,30,13,01,17.20
2016,05,30,13,02,17.20
2016,05,30,13,03,17.20
2016,05,30,13,04,17.20
2016,05,30,13,05,17.20
2016,05,30,13,06,17.20
2016,05,30,13,07,17.20
2016,05,30,13,08,17.20
2016,05,30,13,09,17.20
2016,05,30,13,10,17.10
2016,05,30,13,11,17.20
2016,05,30,13,12,17.20
2016,05,30,13,13,17.20
2016,05,30,13,14,17.30
2016,05,30,13,15,17.30
2016,05,30,13,16,17.30
2016,05,30,13,17,17.30
2016,05,30,13,18,17.40
2016,05,30,13,19,17.40
2016,05,30,13,20,17.40
2016,05,30,13,21,17.50
2016,05,30,13,22,17.60
2016,05,30,13,23,17.70
2016,05,30,13,24,17.70
2016,05,30,13,25,17.70
2016,05,30,13,26,17.60
2016,05,30,13,27,17.60
2016,05,30,13,28,17.50
2016,05,30,13,29,17.50
2016,05,30,13,30,17.40
2016,05,30,13,31,17.40
2016,05,30,13,32,17.50
2016,05,30,13,33,17.50
2016,05,30,13,34,17.50
2016,05,30,13,35,17.50
2016,05,30,13,36,17.50
2016,05,30,13,37,17.50
2016,05,30,13,38,17.40
2016,05,30,13,39,17.40
2016,05,30,13,40,17.50
2016,05,30,13,41,17.70
2016,05,30,13,42,17.80
2016,05,30,13,43,17.80
2016,05,30,13,44,17.80
2016,05,30,13,45,17.90
2016,05,30,13,46,17.90
2016,05,30,13,47,17.90
2016,05,30,13,48,17.90
2016,05,30,13,49,17.90
2016,05,30,13,50,17.90
2016,05,30,13,51,17.90
2016,05,30,13,52,17.90
2016,05,30,13,53,18.00
2016,05,30,13,54,18.00
2016,05,30,13,55,18.10
2016,05,30,13,56,18.10
2016,05,30,13,57,18.10
2016,05,30,13,58,18.10
2016,05,30,13,59,18.10
2016,05,30,14,00,18.10
2016,05,30,14,01,18.10
2016,05,30,14,02,18.00
2016,05,30,14,03,17.90
2016,05,30,14,04,17.90
2016,05,30,14,05,17.90
2016,05,30,14,06,17.90
2016,05,30,14,07,17.90
2016,05,30,14,08,17.90
2016,05,30,14,09,17.90
2016,05,30,14,10,17.90
2016,05,30,14,11,17.90
2016,05,30,14,12,17.90
2016,05,30,14,13,17.90
2016,05,30,14,14,17.80
2016,05,30,14,15,17.90
2016,05,30,14,16,17.90
2016,05,30,14,17,17.90
2016,05,30,14,18,17.90
2016,05,30,14,19,17.90
2016,05,30,14,20,17.90
2016,05,30,14,21,17.90
2016,05,30,14,22,18.00
2016,05,30,14,23,18.00
2016,05,30,14,24,18.10
2016,05,30,14,25,18.10
2016,05,30,14,26,18.20
2016,05,30,14,27,18.20
2016,05,30,14,28,18.20
2016,05,30,14,29,18.20
2016,05,30,14,30,18.20
2016,05,30,14,31,18.30
2016,05,30,14,32,18.40
2016,05,30,14,33,18.50
2016,05,30,14,34,18.60
2016,05,30,14,35,18.60
2016,05,30,14,36,18.60
2016,05,30,14,37,18.50
2016,05,30,14,38,18.50
2016,05,30,14,39,18.50
2016,05,30,14,40,18.60
2016,05,30,14,41,18.60
2016,05,30,14,42,18.70
2016,05,30,14,43,18.70
2016,05,30,14,44,18.70
2016,05,30,14,45,18.80
2016,05,30,14,46,18.70
2016,05,30,14,47,18.70
2016,05,30,14,48,18.70
2016,05,30,14,49,18.70
2016,05,30,14,50,18.60
2016,05,30,14,51,18.50
2016,05,30,14,52,18.50
2016,05,30,14,53,18.50
2016,05,30,14,54,18.50
2016,05,30,14,55,18.40
2016,05,30,14,56,18.40
2016,05,30,14,57,18.40
2016,05,30,14,58,18.40
2016,05,30,14,59,18.40
2016,05,30,15,00,18.40
2016,05,30,15,01,18.40
2016,05,30,15,02,18.40
2016,05,30,15,03,18.50
2016,05,30,15,04,18.50
2016,05,30,15,05,18.50
2016,05,30,15,06,18.70
2016,05,30,15,07,18.80
2016,05,30,15,08,18.90
2016,05,30,15,09,18.80
2016,05,30,15,10,18.80
2016,05,30,15,11,18.60
2016,05,30,15,12,18.60
2016,05,30,15,13,18.50
2016,05,30,15,14,18.50
2016,05,30,15,15,18.50
2016,05,30,15,16,18.60
2016,05,30,15,17,18.70
2016,05,30,15,18,18.90
2016,05,30,15,19,18.90
2016,05,30,15,20,18.90
2016,05,30,15,21,18.90
2016,05,30,15,22,18.90
2016,05,30,15,23,18.90
2016,05,30,15,24,19.00
2016,05,30,15,25,19.10
2016,05,30,15,26,19.20
2016,05,30,15,27,19.20
2016,05,30,15,28,19.20
2016,05,30,15,29,19.20
2016,05,30,15,30,19.10
2016,05,30,15,31,19.10
2016,05,30,15,32,19.00
2016,05,30,15,33,19.10
2016,05,30,15,34,19.10
2016,05,30,15,35,19.10
2016,05,30,15,36,19.10
2016,05,30,15,37,19.10
2016,05,30,15,38,19.00
2016,05,30,15,39,18.90
2016,05,30,15,40,18.90
2016,05,30,15,41,18.80
2016,05,30,15,42,18.80
2016,05,30,15,43,18.80
2016,05,30,15,44,18.80
2016,05,30,15,45,18.80
2016,05,30,15,46,18.90
2016,05,30,15,47,19.00
2016,05,30,15,48,19.10
2016,05,30,15,49,19.20
2016,05,30,15,50,19.30
2016,05,30,15,51,19.30
2016,05,30,15,52,19.30
2016,05,30,15,53,19.30
2016,05,30,15,54,19.30
2016,05,30,15,55,19.20
2016,05,30,15,56,19.20
2016,05,30,15,57,19.20
2016,05,30,15,58,19.20
2016,05,30,15,59,19.20
2016,05,30,16,00,19.20
2016,05,30,16,01,19.20
2016,05,30,16,02,19.30
2016,05,30,16,03,19.40
2016,05,30,16,04,19.40
2016,05,30,16,05,19.50
2016,05,30,16,06,19.60
2016,05,30,16,07,19.70
2016,05,30,16,08,19.70
2016,05,30,16,09,19.70
2016,05,30,16,10,19.70
2016,05,30,16,11,19.80
2016,05,30,16,12,19.80
2016,05,30,16,13,19.80
2016,05,30,16,14,19.80
2016,05,30,16,15,19.80
2016,05,30,16,16,19.80
2016,05,30,16,17,19.80
2016,05,30,16,18,19.80
2016,05,30,16,19,19.70
2016,05,30,16,20,19.70
2016,05,30,16,21,19.60
2016,05,30,16,22,19.60
2016,05,30,16,23,19.50
2016,05,30,16,24,19.40
2016,05,30,16,25,19.40
2016,05,30,16,26,19.40
2016,05,30,16,27,19.50
2016,05,30,16,28,19.50
2016,05,30,16,29,19.50
2016,05,30,16,30,19.40
2016,05,30,16,31,19.40
2016,05,30,16,32,19.30
2016,05,30,16,33,19.30
2016,05,30,16,34,19.30
2016,05,30,16,35,19.30
2016,05,30,16,36,19.50
2016,05,30,16,37,19.60
2016,05,30,16,38,19.70
2016,05,30,16,39,19.80
2016,05,30,16,40,19.80
2016,05,30,16,41,19.80
2016,05,30,16,42,19.80
2016,05,30,16,43,19.80
2016,05,30,16,44,19.70
2016,05,30,16,45,19.70
2016,05,30,16,46,19.70
2016,05,30,16,47,19.80
2016,05,30,16,48,19.80
2016,05,30,16,49,19.90
2016,05,30,16,50,20.00
2016,05,30,16,51,20.00
2016,05,30,16,52,20.00
2016,05,30,16,53,20.00
2016,05,30,16,54,20.00
2016,05,30,16,55,20.00
2016,05,30,16,56,19.90
2016,05,30,16,57,19.90
2016,05,30,16,58,19.90
2016,05,30,16,59,19.80
2016,05,30,17,00,19.80
2016,05,30,17,01,19.90
2016,05,30,17,02,19.90
2016,05,30,17,03,19.90
2016,05,30,17,04,19.90
2016,05,30,17,05,20.00
2016,05,30,17,06,20.00
2016,05,30,17,07,20.10
2016,05,30,17,08,20.20
2016,05,30,17,09,20.30
2016,05,30,17,10,20.30
2016,05,30,17,11,20.40
2016,05,30,17,12,20.40
2016,05,30,17,13,20.30
2016,05,30,17,14,20.30
2016,05,30,17,15,20.30
2016,05,30,17,16,20.30
2016,05,30,17,17,20.30
2016,05,30,17,18,20.30
2016,05,30,17,19,20.30
2016,05,30,17,20,20.40
2016,05,30,17,21,20.40
2016,05,30,17,22,20.40
2016,05,30,17,23,20.40
2016,05,30,17,24,20.30
2016,05,30,17,25,20.30
2016,05,30,17,26,20.20
2016,05,30,17,27,20.10
2016,05,30,17,28,20.00
2016,05,30,17,29,19.90
2016,05,30,17,30,19.90